Change the Weather History Date:

Friday, November 9, 2012

  Actual Average (KLBX) Record (KLBX)
Temperature  
Mean Temperature 75 °F -  
Max Temperature 84 °F 71 °F 84 °F (2005)
Min Temperature 66 °F 54 °F 37 °F (2000)
Cooling Degree Days 10    
Growing Degree Days 25 (Base 50)    
Moisture  
Dew Point 64 °F    
Average Humidity 72    
Maximum Humidity 95    
Minimum Humidity 46    
Precipitation  
Precipitation 0.00 in - - ()
Sea Level Pressure  
Sea Level Pressure 30.08 in    
Wind  
Wind Speed 9 mph (SE)    
Max Wind Speed 20 mph    
Max Gust Speed 26 mph    
Visibility 10 miles    
Events      
Averages and records for this station are not official NWS values.
T = Trace of Precipitation, MM = Missing Value Source: NWS Daily Summary

Daily Weather History Graph

Daily Weather History Graph

Search for Another Location

Airport or City:

Trip Planner

Search our weather history database for the weather conditions in past years. The results will help you decide how hot, cold, wet, or windy it might be!

Date:

Astronomy

Nov. 09, 2012 Rise Set
Actual Time 6:42 AM CST 5:31 PM CST
Civil Twilight 6:17 AM CST 5:56 PM CST
Nautical Twilight 5:49 AM CST 6:25 PM CST
Astronomical Twilight 5:21 AM CST 6:53 PM CST
Moon 2:03 AM CST (11/9) 2:27 PM CST (11/9)
Length of Visible Light 11h 39m
Length of Day
10h 49m
Waning Crescent, 23% of the Moon is Illuminated
Nov 9
Waning Crescent
Nov 13
New
Nov 20
First Quarter
Nov 28
Full
Dec 6
Last Quarter

Hourly Weather History & Observations

Time (CST) Temp. Heat Index Dew Point Humidity Pressure Visibility Wind Dir Wind Speed Gust Speed Precip Events Conditions
12:15 AM 67.1 °F - 64.8 °F 92% 30.09 in 10.0 mi SSE 5.8 mph - N/A   Scattered Clouds
12:35 AM 67.3 °F - 63.3 °F 87% 30.09 in 10.0 mi SE 5.8 mph - N/A   Scattered Clouds
12:55 AM 67.5 °F - 63.7 °F 88% 30.08 in 10.0 mi SE 6.9 mph - N/A   Scattered Clouds
1:15 AM 68.4 °F - 64.4 °F 87% 30.09 in 10.0 mi SE 6.9 mph - N/A   Scattered Clouds
1:35 AM 68.9 °F - 64.4 °F 86% 30.08 in 10.0 mi SE 6.9 mph - N/A   Mostly Cloudy
1:55 AM 69.1 °F - 64.8 °F 86% 30.08 in 10.0 mi SE 6.9 mph - N/A   Mostly Cloudy
2:15 AM 69.4 °F - 64.8 °F 85% 30.08 in 10.0 mi SSE 6.9 mph - N/A   Mostly Cloudy
2:35 AM 69.8 °F - 65.1 °F 85% 30.08 in 10.0 mi SE 6.9 mph - N/A   Mostly Cloudy
2:55 AM 69.6 °F - 64.8 °F 84% 30.08 in 10.0 mi SSE 5.8 mph - N/A   Mostly Cloudy
3:15 AM 68.9 °F - 64.4 °F 86% 30.08 in 10.0 mi SE 5.8 mph - N/A   Scattered Clouds
3:35 AM 68.2 °F - 64.2 °F 87% 30.08 in 10.0 mi SE 5.8 mph - N/A   Clear
3:55 AM 68.2 °F - 64.2 °F 87% 30.08 in 10.0 mi SE 6.9 mph - N/A   Clear
4:15 AM 68.9 °F - 64.4 °F 86% 30.07 in 10.0 mi SE 8.1 mph - N/A   Clear
4:35 AM 69.3 °F - 64.6 °F 85% 30.08 in 10.0 mi SSE 8.1 mph - N/A   Clear
4:55 AM 68.7 °F - 64.4 °F 86% 30.08 in 10.0 mi SE 8.1 mph - N/A   Clear
5:15 AM 68.5 °F - 64.4 °F 87% 30.08 in 10.0 mi SE 8.1 mph - N/A   Clear
5:35 AM 69.3 °F - 64.8 °F 86% 30.08 in 10.0 mi SE 9.2 mph - N/A   Clear
5:55 AM 69.8 °F - 64.8 °F 84% 30.08 in 10.0 mi SE 8.1 mph - N/A   Clear
6:15 AM 69.6 °F - 64.6 °F 84% 30.08 in 10.0 mi SE 8.1 mph - N/A   Clear
6:35 AM 69.3 °F - 64.4 °F 84% 30.09 in 10.0 mi SE 6.9 mph - N/A   Clear
6:55 AM 68.7 °F - 64.4 °F 86% 30.09 in 10.0 mi SE 6.9 mph - N/A   Clear
7:15 AM 69.4 °F - 64.8 °F 85% 30.09 in 10.0 mi SE 6.9 mph - N/A   Clear
7:35 AM 71.6 °F - 65.1 °F 80% 30.10 in 10.0 mi SE 9.2 mph - N/A   Clear
7:55 AM 73.4 °F - 65.3 °F 76% 30.10 in 10.0 mi SE 9.2 mph 17.3 mph N/A   Clear
8:15 AM 75.0 °F - 65.7 °F 73% 30.11 in 10.0 mi SE 11.5 mph - N/A   Clear
8:35 AM 77.0 °F - 65.7 °F 68% 30.11 in 10.0 mi SE 12.7 mph 16.1 mph N/A   Clear
8:55 AM 78.4 °F - 64.8 °F 63% 30.11 in 10.0 mi SSE 16.1 mph 21.9 mph N/A   Clear
9:15 AM 79.5 °F - 64.2 °F 59% 30.12 in 10.0 mi SE 13.8 mph 24.2 mph N/A   Clear
9:35 AM 80.2 °F 81.8 °F 63.5 °F 57% 30.13 in 10.0 mi SSE 17.3 mph 23.0 mph N/A   Clear
9:55 AM 80.8 °F 82.0 °F 62.6 °F 54% 30.13 in 10.0 mi SSE 17.3 mph 21.9 mph N/A   Clear
10:15 AM 81.9 °F 83.1 °F 63.1 °F 53% 30.13 in 10.0 mi SSE 18.4 mph - N/A   Clear
10:35 AM 82.2 °F 83.3 °F 62.8 °F 52% 30.13 in 10.0 mi SSE 18.4 mph 24.2 mph N/A   Clear
10:55 AM 82.4 °F 83.4 °F 62.6 °F 51% 30.13 in 10.0 mi SSE 17.3 mph 23.0 mph N/A   Clear
11:15 AM 83.1 °F 84.2 °F 63.3 °F 51% 30.13 in 10.0 mi SSE 16.1 mph 20.7 mph N/A   Clear
11:35 AM 83.5 °F 84.3 °F 62.2 °F 49% 30.12 in 10.0 mi SSE 16.1 mph 23.0 mph N/A   Clear
11:55 AM 83.7 °F 84.3 °F 61.9 °F 48% 30.11 in 10.0 mi SSE 19.6 mph 24.2 mph N/A   Clear
12:15 PM 83.8 °F 84.5 °F 62.1 °F 48% 30.10 in 10.0 mi SSE 17.3 mph 26.5 mph N/A   Clear
12:35 PM 84.0 °F 84.7 °F 62.2 °F 48% 30.09 in 10.0 mi SSE 18.4 mph 24.2 mph N/A   Clear
12:55 PM 84.2 °F 84.8 °F 62.2 °F 47% 30.08 in 10.0 mi SSE 17.3 mph 24.2 mph N/A   Clear
1:15 PM 84.2 °F 84.8 °F 61.7 °F 47% 30.08 in 10.0 mi SSE 16.1 mph 23.0 mph N/A   Clear
1:35 PM 83.8 °F 84.3 °F 61.9 °F 47% 30.07 in 10.0 mi SE 16.1 mph 21.9 mph N/A   Clear
1:55 PM 83.5 °F 84.1 °F 61.9 °F 48% 30.06 in 10.0 mi SSE 11.5 mph 21.9 mph N/A   Clear
2:15 PM 83.5 °F 83.7 °F 61.0 °F 46% 30.06 in 10.0 mi SSE 16.1 mph 23.0 mph N/A   Clear
2:35 PM 83.1 °F 83.5 °F 60.8 °F 47% 30.06 in 10.0 mi SSE 16.1 mph 21.9 mph N/A   Clear
2:55 PM 82.6 °F 83.2 °F 61.5 °F 49% 30.05 in 10.0 mi SSE 15.0 mph - N/A   Clear
3:15 PM 82.4 °F 83.2 °F 62.1 °F 50% 30.05 in 10.0 mi SSE 16.1 mph - N/A   Clear
3:35 PM 81.5 °F 82.5 °F 62.4 °F 52% 30.04 in 10.0 mi SSE 13.8 mph 19.6 mph N/A   Clear
3:55 PM 81.1 °F 82.4 °F 63.0 °F 54% 30.05 in 10.0 mi SE 13.8 mph 20.7 mph N/A   Scattered Clouds
4:15 PM 80.2 °F 81.6 °F 63.1 °F 56% 30.05 in 10.0 mi SSE 13.8 mph 18.4 mph N/A   Clear
4:35 PM 79.2 °F - 63.3 °F 58% 30.05 in 10.0 mi SSE 12.7 mph 17.3 mph N/A   Clear
4:55 PM 78.1 °F - 63.5 °F 61% 30.04 in 10.0 mi SE 12.7 mph 17.3 mph N/A   Scattered Clouds
5:15 PM 76.6 °F - 63.5 °F 64% 30.05 in 10.0 mi SE 8.1 mph - N/A   Clear
5:35 PM 75.0 °F - 63.5 °F 67% 30.05 in 10.0 mi SE 6.9 mph - N/A   Clear
5:55 PM 73.0 °F - 63.5 °F 72% 30.05 in 10.0 mi SE 5.8 mph - N/A   Scattered Clouds
6:15 PM 72.1 °F - 63.7 °F 75% 30.06 in 10.0 mi SE 5.8 mph - N/A   Mostly Cloudy
6:35 PM 71.8 °F - 63.9 °F 76% 30.06 in 10.0 mi ESE 4.6 mph - N/A   Mostly Cloudy
6:55 PM 71.1 °F - 63.9 °F 78% 30.06 in 10.0 mi ESE 5.8 mph - N/A   Mostly Cloudy
7:15 PM 69.4 °F - 63.7 °F 82% 30.07 in 10.0 mi East 5.8 mph - N/A   Scattered Clouds
7:35 PM 68.4 °F - 63.7 °F 85% 30.08 in 10.0 mi East 4.6 mph - N/A   Scattered Clouds
7:55 PM 67.8 °F - 63.5 °F 86% 30.08 in 10.0 mi East 4.6 mph - N/A   Scattered Clouds
8:15 PM 67.3 °F - 63.5 °F 88% 30.08 in 10.0 mi ESE 5.8 mph - N/A   Scattered Clouds
8:35 PM 67.1 °F - 63.5 °F 88% 30.08 in 10.0 mi ESE 5.8 mph - N/A   Scattered Clouds
8:55 PM 67.1 °F - 63.5 °F 88% 30.08 in 10.0 mi ESE 6.9 mph - N/A   Scattered Clouds
9:15 PM 67.3 °F - 63.5 °F 88% 30.07 in 10.0 mi ESE 5.8 mph - N/A   Clear
9:35 PM 67.5 °F - 63.3 °F 87% 30.08 in 10.0 mi East 4.6 mph - N/A   Scattered Clouds
9:55 PM 66.6 °F - 62.8 °F 88% 30.08 in 10.0 mi ESE 5.8 mph - N/A   Scattered Clouds
10:15 PM 66.6 °F - 65.1 °F 95% 30.08 in 10.0 mi SE 4.6 mph - N/A   Scattered Clouds
10:35 PM 66.6 °F - 64.2 °F 92% 30.08 in 10.0 mi SE 5.8 mph - N/A   Scattered Clouds
10:55 PM 67.5 °F - 63.5 °F 87% 30.08 in 10.0 mi SE 6.9 mph - N/A   Clear
11:15 PM 68.9 °F - 63.1 °F 82% 30.08 in 10.0 mi SE 6.9 mph - N/A   Scattered Clouds
11:35 PM 69.1 °F - 62.8 °F 80% 30.07 in 10.0 mi SE 8.1 mph - N/A   Scattered Clouds
11:55 PM 69.1 °F - 62.6 °F 80% 30.08 in 10.0 mi SE 6.9 mph - N/A   Scattered Clouds